• In Hungary
  • List of Countries
  • For 7 days
  • Water Temperature
  • Satellite Maps
  • Weather Map
  • News
  • Weather Widgets
  • user-avatar
    Login

    Hourly Weather Galiakberovo

    Today, 23 September, Sunday

    Time Temperature Precipitation Wind Pressure Humidity
    00:00 +11°C° 0 mm 1 mps 729 mmHg 96%
    01:00 +11°C° 0 mm 1 mps 729 mmHg 97%
    02:00 +11°C° 0 mm 1 mps 729 mmHg 97%
    03:00 +12°C° 0 mm 1 mps 730 mmHg 98%
    04:00 +12°C° 0 mm 1 mps 730 mmHg 98%
    05:00 +12°C° 0 mm 1 mps 730 mmHg 98%
    06:00 +13°C° 0 mm 1 mps 730 mmHg 98%
    07:00 +13°C° 0 mm 1 mps 730 mmHg 98%
    08:00 +14°C° 0 mm 1 mps 730 mmHg 93%
    09:00 +15°C° 0 mm 1 mps 730 mmHg 89%
    10:00 +18°C° 0 mm 1 mps 730 mmHg 84%
    11:00 +19°C° 0 mm 1 mps 731 mmHg 78%
    12:00 +20°C° 0 mm 1 mps 731 mmHg 72%
    13:00 +21°C° 0 mm 1 mps 731 mmHg 66%
    14:00 +20°C° 0 mm 1 mps 731 mmHg 68%
    15:00 +20°C° 0 mm 1 mps 730 mmHg 70%
    16:00 +20°C° 0 mm 1 mps 730 mmHg 72%
    17:00 +18°C° 0 mm 1 mps 730 mmHg 78%
    18:00 +15°C° 0 mm 1 mps 730 mmHg 85%
    19:00 +13°C° 0 mm 0 mps 730 mmHg 92%
    20:00 +12°C° 0 mm 0 mps 730 mmHg 93%
    21:00 +13°C° 0 mm 1 mps 730 mmHg 93%
    22:00 +13°C° 0 mm 1 mps 730 mmHg 94%
    23:00 +12°C° 0 mm 1 mps 730 mmHg 95%

    Tomorrow, 24 September, Monday

    Time Temperature Precipitation Wind Pressure Humidity
    00:00 +12°C° 0 mm 1 mps 730 mmHg 95%
    01:00 +12°C° 0 mm 1 mps 729 mmHg 95%
    02:00 +12°C° 0 mm 1 mps 729 mmHg 95%
    03:00 +12°C° 0 mm 1 mps 729 mmHg 95%
    04:00 +11°C° 0 mm 1 mps 729 mmHg 95%
    05:00 +12°C° 0 mm 1 mps 729 mmHg 95%
    06:00 +12°C° 0 mm 1 mps 729 mmHg 94%
    07:00 +13°C° 0 mm 1 mps 729 mmHg 93%
    08:00 +14°C° 0 mm 2 mps 729 mmHg 88%
    09:00 +16°C° 0 mm 2 mps 729 mmHg 82%
    10:00 +18°C° 0 mm 3 mps 729 mmHg 77%
    11:00 +19°C° 0.1 mm 3 mps 729 mmHg 71%
    12:00 +20°C° 0.1 mm 4 mps 729 mmHg 66%
    13:00 +21°C° 0.1 mm 4 mps 729 mmHg 60%
    14:00 +20°C° 0 mm 4 mps 728 mmHg 61%
    15:00 +20°C° 0 mm 4 mps 728 mmHg 62%
    16:00 +20°C° 0 mm 4 mps 728 mmHg 63%
    17:00 +18°C° 0 mm 3 mps 728 mmHg 69%
    18:00 +16°C° 0 mm 3 mps 727 mmHg 75%
    19:00 +15°C° 0 mm 2 mps 727 mmHg 81%
    20:00 +14°C° 0 mm 2 mps 727 mmHg 81%
    21:00 +14°C° 0 mm 2 mps 727 mmHg 81%
    22:00 +13°C° 0 mm 2 mps 727 mmHg 82%
    23:00 +13°C° 0 mm 2 mps 727 mmHg 82%

    Day after tomorrow, 25 September, Tuesday

    Time Temperature Precipitation Wind Pressure Humidity
    00:00 +12°C° 0 mm 2 mps 727 mmHg 82%
    01:00 +12°C° 0 mm 2 mps 727 mmHg 82%
    02:00 +12°C° 0 mm 2 mps 727 mmHg 79%
    03:00 +12°C° 0 mm 2 mps 727 mmHg 77%
    04:00 +12°C° 0 mm 2 mps 727 mmHg 74%
    05:00 +13°C° 0 mm 2 mps 727 mmHg 71%
    06:00 +13°C° 0 mm 2 mps 727 mmHg 67%
    07:00 +14°C° 0 mm 2 mps 727 mmHg 64%
    08:00 +14°C° 0 mm 3 mps 727 mmHg 59%
    09:00 +17°C° 0 mm 4 mps 727 mmHg 54%
    10:00 +19°C° 0 mm 5 mps 727 mmHg 49%
    11:00 +20°C° 0 mm 5 mps 727 mmHg 48%
    12:00 +20°C° 0 mm 5 mps 727 mmHg 47%
    13:00 +21°C° 0 mm 6 mps 727 mmHg 47%
    14:00 +21°C° 0 mm 5 mps 726 mmHg 51%
    15:00 +20°C° 0 mm 4 mps 726 mmHg 54%
    16:00 +20°C° 0 mm 4 mps 726 mmHg 58%
    17:00 +18°C° 0 mm 3 mps 726 mmHg 65%
    18:00 +17°C° 0 mm 3 mps 726 mmHg 71%
    19:00 +15°C° 0 mm 2 mps 726 mmHg 77%
    20:00 +15°C° 0 mm 2 mps 726 mmHg 77%
    21:00 +15°C° 0 mm 2 mps 726 mmHg 76%
    22:00 +14°C° 0 mm 2 mps 726 mmHg 75%
    23:00 +14°C° 0 mm 2 mps 726 mmHg 75%

    26 September, Wednesday

    Time Temperature Precipitation Wind Pressure Humidity
    00:00 +14°C° 0 mm 2 mps 726 mmHg 74%
    01:00 +14°C° 0 mm 2 mps 726 mmHg 74%
    02:00 +13°C° 0 mm 3 mps 726 mmHg 73%
    03:00 +13°C° 0 mm 3 mps 726 mmHg 73%
    04:00 +13°C° 0 mm 3 mps 726 mmHg 72%
    05:00 +13°C° 0.1 mm 3 mps 726 mmHg 74%
    06:00 +13°C° 0.1 mm 3 mps 726 mmHg 75%
    07:00 +14°C° 0.1 mm 3 mps 727 mmHg 77%
    08:00 +16°C° 0 mm 3 mps 727 mmHg 74%
    09:00 +17°C° 0 mm 3 mps 727 mmHg 70%
    10:00 +18°C° 0 mm 4 mps 727 mmHg 67%
    11:00 +18°C° 0 mm 4 mps 727 mmHg 66%
    12:00 +19°C° 0 mm 4 mps 728 mmHg 66%
    13:00 +19°C° 0 mm 4 mps 728 mmHg 66%
    14:00 +17°C° 0.2 mm 3 mps 728 mmHg 71%
    15:00 +16°C° 0.2 mm 3 mps 728 mmHg 77%
    16:00 +15°C° 0.2 mm 2 mps 728 mmHg 83%
    17:00 +14°C° 0.1 mm 1 mps 728 mmHg 86%
    18:00 +13°C° 0.1 mm 1 mps 728 mmHg 90%
    19:00 +12°C° 0.1 mm 1 mps 728 mmHg 94%
    20:00 +11°C° 0 mm 1 mps 728 mmHg 94%
    21:00 +10°C° 0 mm 1 mps 728 mmHg 95%
    22:00 +10°C° 0 mm 1 mps 728 mmHg 95%
    23:00 +10°C° 0.2 mm 1 mps 728 mmHg 95%

    27 September, Thursday

    Time Temperature Precipitation Wind Pressure Humidity
    00:00 +9°C° 0.2 mm 1 mps 728 mmHg 94%
    01:00 +9°C° 0.2 mm 1 mps 728 mmHg 94%
    02:00 +9°C° 0.8 mm 1 mps 728 mmHg 94%
    03:00 +8°C° 0.8 mm 1 mps 728 mmHg 94%
    04:00 +8°C° 0.8 mm 1 mps 728 mmHg 95%
    05:00 +8°C° 0.3 mm 1 mps 728 mmHg 95%
    06:00 +8°C° 0.3 mm 1 mps 728 mmHg 94%
    07:00 +7°C° 0.3 mm 2 mps 728 mmHg 94%
    08:00 +7°C° 0 mm 2 mps 728 mmHg 89%
    09:00 +8°C° 0 mm 3 mps 728 mmHg 84%
    10:00 +9°C° 0 mm 3 mps 728 mmHg 78%
    11:00 +8°C° 0.1 mm 4 mps 728 mmHg 75%
    12:00 +8°C° 0.1 mm 4 mps 728 mmHg 72%
    13:00 +8°C° 0.1 mm 5 mps 728 mmHg 69%
    14:00 +8°C° 0.1 mm 5 mps 728 mmHg 66%
    15:00 +7°C° 0.1 mm 5 mps 727 mmHg 62%
    16:00 +7°C° 0.1 mm 5 mps 727 mmHg 59%
    17:00 +6°C° 0 mm 4 mps 727 mmHg 62%
    18:00 +5°C° 0 mm 3 mps 727 mmHg 66%
    19:00 +4°C° 0 mm 2 mps 727 mmHg 70%
    20:00 +4°C° 0 mm 3 mps 727 mmHg 69%
    21:00 +4°C° 0 mm 3 mps 727 mmHg 67%
    22:00 +4°C° 0 mm 4 mps 726 mmHg 66%
    23:00 +4°C° 0.1 mm 4 mps 726 mmHg 67%

    28 September, Friday

    Time Temperature Precipitation Wind Pressure Humidity
    00:00 +4°C° 0.1 mm 4 mps 726 mmHg 68%
    01:00 +3°C° 0.1 mm 5 mps 725 mmHg 68%
    02:00 +3°C° 0.1 mm 5 mps 725 mmHg 69%
    03:00 +5°C° 0.1 mm 5 mps 725 mmHg 70%
    04:00 +5°C° 0.1 mm 5 mps 724 mmHg 71%
    05:00 +3°C° 0.6 mm 5 mps 724 mmHg 74%
    06:00 +3°C° 0.6 mm 6 mps 724 mmHg 77%
    07:00 +3°C° 0.6 mm 6 mps 723 mmHg 80%
    08:00 +3°C° 0.6 mm 6 mps 723 mmHg 80%
    09:00 +4°C° 0.6 mm 6 mps 723 mmHg 80%
    10:00 +4°C° 0.6 mm 7 mps 723 mmHg 80%
    11:00 +4°C° 0.2 mm 7 mps 723 mmHg 79%
    12:00 +5°C° 0.2 mm 7 mps 723 mmHg 78%
    13:00 +5°C° 0.2 mm 6 mps 723 mmHg 77%
    14:00 +7°C° 0.1 mm 6 mps 723 mmHg 76%
    15:00 +7°C° 0.1 mm 6 mps 723 mmHg 76%
    16:00 +7°C° 0.1 mm 6 mps 723 mmHg 75%
    17:00 +8°C° 0.1 mm 6 mps 723 mmHg 75%
    18:00 +8°C° 0.1 mm 6 mps 723 mmHg 75%
    19:00 +8°C° 0.1 mm 6 mps 724 mmHg 75%
    20:00 +8°C° 0.1 mm 5 mps 724 mmHg 77%
    21:00 +8°C° 0.1 mm 5 mps 724 mmHg 80%
    22:00 +7°C° 0.1 mm 4 mps 725 mmHg 83%
    23:00 +7°C° 0 mm 4 mps 725 mmHg 84%
    Show more